• Em Portugal
  • Lista de países
  • Para 7 dias
  • Temperatura da água
  • Mapas de satélite
  • Mapa do tempo
  • Widgets de tempo
  • user-avatar
    Iniciar Sessão

    Previsão horária em La-Plata

    Hoje, 23 Maio, Quarta-feira

    Tempo Temperatura Precipitação Vento Pressão Humidade
    00:00 +8°C° 0 mm 4 m/s 764 mmHg 71%
    01:00 +9°C° 0 mm 3 m/s 764 mmHg 72%
    02:00 +8°C° 0 mm 3 m/s 764 mmHg 73%
    03:00 +8°C° 0 mm 3 m/s 764 mmHg 74%
    04:00 +8°C° 0 mm 3 m/s 765 mmHg 75%
    05:00 +7°C° 0 mm 3 m/s 765 mmHg 76%
    06:00 +8°C° 0 mm 3 m/s 765 mmHg 76%
    07:00 +8°C° 0 mm 3 m/s 765 mmHg 75%
    08:00 +9°C° 0 mm 3 m/s 766 mmHg 74%
    09:00 +10°C° 0 mm 3 m/s 766 mmHg 68%
    10:00 +12°C° 0 mm 3 m/s 766 mmHg 62%
    11:00 +14°C° 0 mm 3 m/s 766 mmHg 55%
    12:00 +16°C° 0 mm 3 m/s 766 mmHg 54%
    13:00 +16°C° 0 mm 3 m/s 766 mmHg 52%
    14:00 +17°C° 0 mm 3 m/s 765 mmHg 50%
    15:00 +16°C° 0 mm 3 m/s 766 mmHg 56%
    16:00 +14°C° 0 mm 3 m/s 766 mmHg 61%
    17:00 +13°C° 0 mm 2 m/s 766 mmHg 67%
    18:00 +13°C° 0 mm 2 m/s 766 mmHg 70%
    19:00 +12°C° 0 mm 2 m/s 766 mmHg 73%
    20:00 +12°C° 0 mm 2 m/s 766 mmHg 76%
    21:00 +12°C° 0 mm 2 m/s 767 mmHg 77%
    22:00 +12°C° 0 mm 2 m/s 767 mmHg 79%
    23:00 +12°C° 0 mm 2 m/s 767 mmHg 81%

    Amanhã, 24 Maio, Quinta-feira

    Tempo Temperatura Precipitação Vento Pressão Humidade
    00:00 +12°C° 0 mm 2 m/s 767 mmHg 82%
    01:00 +10°C° 0 mm 2 m/s 767 mmHg 84%
    02:00 +10°C° 0 mm 3 m/s 767 mmHg 85%
    03:00 +10°C° 0 mm 3 m/s 767 mmHg 85%
    04:00 +10°C° 0 mm 3 m/s 767 mmHg 86%
    05:00 +10°C° 0 mm 3 m/s 767 mmHg 86%
    06:00 +10°C° 0 mm 3 m/s 767 mmHg 84%
    07:00 +10°C° 0 mm 3 m/s 767 mmHg 83%
    08:00 +11°C° 0 mm 3 m/s 767 mmHg 81%
    09:00 +13°C° 0 mm 3 m/s 768 mmHg 75%
    10:00 +14°C° 0 mm 3 m/s 768 mmHg 68%
    11:00 +17°C° 0 mm 3 m/s 768 mmHg 61%
    12:00 +18°C° 0 mm 3 m/s 767 mmHg 59%
    13:00 +18°C° 0 mm 3 m/s 767 mmHg 56%
    14:00 +19°C° 0 mm 3 m/s 766 mmHg 54%
    15:00 +18°C° 0 mm 3 m/s 766 mmHg 57%
    16:00 +17°C° 0 mm 3 m/s 766 mmHg 61%
    17:00 +14°C° 0 mm 3 m/s 766 mmHg 64%
    18:00 +14°C° 0 mm 3 m/s 766 mmHg 65%
    19:00 +13°C° 0 mm 3 m/s 766 mmHg 66%
    20:00 +13°C° 0 mm 3 m/s 767 mmHg 67%
    21:00 +13°C° 0 mm 3 m/s 767 mmHg 69%
    22:00 +12°C° 0 mm 3 m/s 767 mmHg 71%
    23:00 +12°C° 0 mm 3 m/s 767 mmHg 73%

    Depois de amanhã, 25 Maio, Sexta-feira

    Tempo Temperatura Precipitação Vento Pressão Humidade
    00:00 +12°C° 0 mm 3 m/s 767 mmHg 75%
    01:00 +11°C° 0 mm 3 m/s 767 mmHg 77%
    02:00 +11°C° 0 mm 3 m/s 767 mmHg 79%
    03:00 +11°C° 0 mm 3 m/s 767 mmHg 80%
    04:00 +10°C° 0 mm 3 m/s 767 mmHg 82%
    05:00 +10°C° 0 mm 3 m/s 767 mmHg 83%
    06:00 +10°C° 0 mm 3 m/s 767 mmHg 82%
    07:00 +11°C° 0 mm 3 m/s 767 mmHg 81%
    08:00 +11°C° 0 mm 3 m/s 767 mmHg 80%
    09:00 +13°C° 0 mm 4 m/s 767 mmHg 74%
    10:00 +15°C° 0 mm 4 m/s 767 mmHg 68%
    11:00 +16°C° 0 mm 5 m/s 767 mmHg 62%
    12:00 +17°C° 0 mm 5 m/s 766 mmHg 60%
    13:00 +17°C° 0 mm 5 m/s 765 mmHg 58%
    14:00 +19°C° 0 mm 5 m/s 765 mmHg 57%
    15:00 +18°C° 0 mm 4 m/s 764 mmHg 61%
    16:00 +15°C° 0 mm 4 m/s 764 mmHg 65%
    17:00 +14°C° 0 mm 3 m/s 764 mmHg 69%
    18:00 +14°C° 0 mm 4 m/s 764 mmHg 71%
    19:00 +13°C° 0 mm 4 m/s 764 mmHg 73%
    20:00 +13°C° 0 mm 4 m/s 764 mmHg 74%
    21:00 +13°C° 0 mm 4 m/s 764 mmHg 76%
    22:00 +13°C° 0 mm 4 m/s 764 mmHg 78%
    23:00 +13°C° 0 mm 5 m/s 764 mmHg 80%

    26 Maio, Sábado

    Tempo Temperatura Precipitação Vento Pressão Humidade
    00:00 +13°C° 0 mm 5 m/s 764 mmHg 80%
    01:00 +12°C° 0 mm 5 m/s 763 mmHg 81%
    02:00 +12°C° 0 mm 5 m/s 763 mmHg 82%
    03:00 +12°C° 0 mm 5 m/s 763 mmHg 82%
    04:00 +12°C° 0 mm 5 m/s 763 mmHg 83%
    05:00 +12°C° 0 mm 5 m/s 763 mmHg 83%
    06:00 +12°C° 0 mm 5 m/s 763 mmHg 82%
    07:00 +12°C° 0 mm 5 m/s 763 mmHg 81%
    08:00 +13°C° 0 mm 5 m/s 764 mmHg 80%
    09:00 +14°C° 0 mm 5 m/s 764 mmHg 74%
    10:00 +15°C° 0 mm 5 m/s 763 mmHg 68%
    11:00 +17°C° 0 mm 5 m/s 763 mmHg 63%
    12:00 +17°C° 0 mm 5 m/s 763 mmHg 60%
    13:00 +19°C° 0 mm 5 m/s 762 mmHg 58%
    14:00 +19°C° 0 mm 5 m/s 761 mmHg 56%
    15:00 +18°C° 0 mm 4 m/s 761 mmHg 60%
    16:00 +17°C° 0 mm 4 m/s 761 mmHg 64%
    17:00 +16°C° 0 mm 3 m/s 761 mmHg 69%
    18:00 +14°C° 0 mm 3 m/s 762 mmHg 71%
    19:00 +14°C° 0 mm 3 m/s 762 mmHg 74%
    20:00 +14°C° 0 mm 3 m/s 762 mmHg 77%
    21:00 +13°C° 0 mm 3 m/s 762 mmHg 79%
    22:00 +13°C° 0 mm 3 m/s 763 mmHg 81%
    23:00 +13°C° 0 mm 3 m/s 763 mmHg 84%

    27 Maio, Domingo

    Tempo Temperatura Precipitação Vento Pressão Humidade
    00:00 +13°C° 0 mm 3 m/s 763 mmHg 85%
    01:00 +13°C° 0 mm 3 m/s 763 mmHg 86%
    02:00 +12°C° 0 mm 3 m/s 763 mmHg 88%
    03:00 +12°C° 0 mm 3 m/s 763 mmHg 88%
    04:00 +13°C° 0 mm 2 m/s 763 mmHg 89%
    05:00 +12°C° 0 mm 2 m/s 763 mmHg 90%
    06:00 +13°C° 0 mm 2 m/s 763 mmHg 90%
    07:00 +13°C° 0 mm 2 m/s 763 mmHg 89%
    08:00 +14°C° 0 mm 1 m/s 764 mmHg 88%
    09:00 +15°C° 0 mm 2 m/s 764 mmHg 82%
    10:00 +17°C° 0 mm 2 m/s 764 mmHg 76%
    11:00 +19°C° 0 mm 2 m/s 764 mmHg 70%
    12:00 +19°C° 0 mm 2 m/s 763 mmHg 69%
    13:00 +20°C° 0 mm 3 m/s 762 mmHg 68%
    14:00 +21°C° 0 mm 3 m/s 761 mmHg 67%
    15:00 +20°C° 0 mm 3 m/s 761 mmHg 71%
    16:00 +19°C° 0 mm 3 m/s 761 mmHg 76%
    17:00 +18°C° 0 mm 2 m/s 761 mmHg 81%
    18:00 +18°C° 0 mm 3 m/s 761 mmHg 84%
    19:00 +17°C° 0 mm 3 m/s 761 mmHg 86%
    20:00 +17°C° 0 mm 4 m/s 761 mmHg 89%
    21:00 +18°C° 0 mm 4 m/s 760 mmHg 90%
    22:00 +17°C° 0 mm 5 m/s 760 mmHg 90%
    23:00 +17°C° 0 mm 5 m/s 760 mmHg 91%

    28 Maio, Segunda-feira

    Tempo Temperatura Precipitação Vento Pressão Humidade
    00:00 +17°C° 0 mm 6 m/s 760 mmHg 91%
    01:00 +17°C° 0 mm 6 m/s 759 mmHg 91%
    02:00 +17°C° 0 mm 6 m/s 759 mmHg 91%
    03:00 +17°C° 0 mm 6 m/s 758 mmHg 91%
    04:00 +17°C° 0 mm 6 m/s 758 mmHg 91%
    05:00 +19°C° 0 mm 6 m/s 757 mmHg 91%
    06:00 +18°C° 0 mm 7 m/s 757 mmHg 90%
    07:00 +18°C° 0 mm 7 m/s 757 mmHg 88%
    08:00 +20°C° 0 mm 7 m/s 757 mmHg 87%
    09:00 +21°C° 0 mm 8 m/s 757 mmHg 80%
    10:00 +23°C° 0 mm 8 m/s 756 mmHg 74%
    11:00 +24°C° 0 mm 9 m/s 756 mmHg 68%
    12:00 +24°C° 0 mm 8 m/s 755 mmHg 68%
    13:00 +26°C° 0 mm 8 m/s 754 mmHg 67%
    14:00 +26°C° 0 mm 8 m/s 753 mmHg 67%
    15:00 +24°C° 0 mm 7 m/s 753 mmHg 70%
    16:00 +24°C° 0 mm 7 m/s 753 mmHg 74%
    17:00 +23°C° 0 mm 6 m/s 753 mmHg 77%
    18:00 +23°C° 0,1 mm 7 m/s 754 mmHg 79%
    19:00 +23°C° 0,1 mm 7 m/s 754 mmHg 81%
    20:00 +23°C° 0,1 mm 8 m/s 754 mmHg 83%
    21:00 +23°C° 1 mm 8 m/s 754 mmHg 83%
    22:00 +23°C° 1 mm 8 m/s 755 mmHg 84%
    23:00 +22°C° 1 mm 8 m/s 755 mmHg 84%
    Mostrar mais